Torna al catalogo

SPOT 2

AttivoScienzaPO
NORAD 20436·PAYLOAD·🇫🇷 France

Lanciato Jan 22, 1990 da Guiana Space Centre

Loading…

Prossimi Passaggi (prossime 24 ore)

TLE

AggiornatoSource: Space-Track

Epoca: Sep 14, 2026, 10:33 UTC

1 20436U 90005A   26257.43966173  .00000780  00000-0  11292-3 0  9993
2 20436  98.7245  61.2463 0128830 166.9975 193.4606 14.74005637928475

Traccia SPOT 2 in tempo reale con AllMySat

Download on the App Store